time, beta470, beta532, beta650
yyyy/mm/dd HH:MM:SS.fff, counts, counts, counts
2023/06/17 12:00:05.411, 114, 138, 95
2023/06/17 12:00:06.531, 111, 139, 91
2023/06/17 12:00:07.667, 112, 129, 90
2023/06/17 12:00:08.787, 108, 132, 87
2023/06/17 12:00:09.923, 108, 135, 91
2023/06/17 12:00:11.059, 110, 130, 92
2023/06/17 12:00:12.179, 111, 128, 89
2023/06/17 12:00:13.314, 109, 130, 86
2023/06/17 12:00:14.435, 110, 133, 91
2023/06/17 12:00:15.571, 123, 143, 85
2023/06/17 12:00:16.707, 133, 135, 94
2023/06/17 12:00:17.827, 123, 138, 90
2023/06/17 12:00:18.963, 115, 143, 96
2023/06/17 12:00:20.082, 113, 148, 94
2023/06/17 12:00:21.218, 126, 151, 98
2023/06/17 12:00:22.354, 134, 144, 94
2023/06/17 12:00:23.474, 133, 138, 93
2023/06/17 12:00:24.610, 114, 139, 94
2023/06/17 12:00:25.730, 116, 143, 90
2023/06/17 12:00:26.866, 119, 148, 104
2023/06/17 12:00:28.002, 124, 152, 93
2023/06/17 12:00:29.122, 119, 140, 96
2023/06/17 12:00:30.258, 126, 149, 97
2023/06/17 12:00:31.378, 120, 153, 96
2023/06/17 12:00:32.514, 116, 139, 102
2023/06/17 12:00:33.650, 118, 151, 96
2023/06/17 12:00:34.769, 125, 141, 95
2023/06/17 12:00:35.905, 120, 144, 99
2023/06/17 12:00:37.025, 118, 148, 98
2023/06/17 12:00:38.161, 116, 140, 95
2023/06/17 12:00:39.297, 119, 138, 92
2023/06/17 12:00:40.417, 119, 146, 92
2023/06/17 12:00:41.553, 117, 143, 91
2023/06/17 12:00:42.689, 121, 145, 91
2023/06/17 12:00:43.808, 113, 142, 97
2023/06/17 12:00:44.945, 125, 138, 90
2023/06/17 12:00:46.064, 117, 138, 89
2023/06/17 12:00:47.201, 115, 145, 93
2023/06/17 12:00:48.337, 117, 136, 90
2023/06/17 12:00:49.457, 113, 138, 91
2023/06/17 12:00:50.593, 116, 140, 92
2023/06/17 12:00:51.713, 113, 139, 87
2023/06/17 12:00:52.848, 118, 139, 85
2023/06/17 12:00:53.984, 119, 146, 85
2023/06/17 12:00:55.104, 114, 142, 87
2023/06/17 12:00:56.240, 120, 139, 85
2023/06/17 12:00:57.360, 114, 129, 85
2023/06/17 12:00:58.496, 116, 136, 86
2023/06/17 12:00:59.632, 110, 133, 88
2023/06/17 12:01:00.752, 111, 135, 84
2023/06/17 12:01:01.888, 112, 133, 88
2023/06/17 12:01:03.008, 114, 126, 83
2023/06/17 12:01:04.143, 111, 125, 83
2023/06/17 12:01:05.280, 113, 135, 82
2023/06/17 12:01:06.400, 113, 132, 83
2023/06/17 12:01:07.536, 111, 128, 83
2023/06/17 12:01:08.655, 108, 136, 90
2023/06/17 12:01:09.790, 106, 136, 83
2023/06/17 12:01:10.927, 109, 133, 92
2023/06/17 12:01:12.047, 111, 128, 92
2023/06/17 12:01:13.182, 109, 122, 96
2023/06/17 12:01:14.319, 108, 122, 84
2023/06/17 12:01:15.439, 112, 129, 84
2023/06/17 12:01:16.575, 108, 132, 90
2023/06/17 12:01:17.694, 106, 123, 82
2023/06/17 12:01:18.831, 106, 127, 83
2023/06/17 12:01:19.966, 111, 124, 80
2023/06/17 12:01:21.087, 109, 123, 83
2023/06/17 12:01:22.223, 110, 117, 86
2023/06/17 12:01:23.342, 111, 121, 88
2023/06/17 12:01:24.478, 111, 122, 85
2023/06/17 12:01:25.615, 107, 122, 85
2023/06/17 12:01:26.734, 106, 122, 90
2023/06/17 12:01:27.870, 104, 117, 87
2023/06/17 12:01:28.990, 104, 121, 83
2023/06/17 12:01:30.126, 104, 119, 84
2023/06/17 12:01:31.262, 104, 117, 81
2023/06/17 12:01:32.382, 103, 120, 80
2023/06/17 12:01:33.518, 103, 122, 77
2023/06/17 12:01:34.638, 105, 116, 84
2023/06/17 12:01:35.774, 108, 125, 84
2023/06/17 12:01:36.893, 102, 117, 80
2023/06/17 12:01:38.030, 103, 116, 79
2023/06/17 12:01:39.166, 101, 113, 81
2023/06/17 12:01:40.285, 102, 113, 82
2023/06/17 12:01:41.422, 106, 114, 82
2023/06/17 12:01:42.557, 102, 115, 80
2023/06/17 12:01:43.677, 100, 118, 81
2023/06/17 12:01:44.813, 104, 116, 82
2023/06/17 12:01:45.933, 101, 120, 78
2023/06/17 12:01:47.069, 101, 109, 85
2023/06/17 12:01:48.205, 100, 114, 75
2023/06/17 12:01:49.325, 102, 114, 77
2023/06/17 12:01:50.461, 106, 115, 80
2023/06/17 12:01:51.581, 99, 119, 77
2023/06/17 12:01:52.717, 101, 121, 79
2023/06/17 12:01:53.853, 100, 119, 76
2023/06/17 12:01:54.973, 99, 128, 74
2023/06/17 12:01:56.109, 101, 120, 78
2023/06/17 12:01:57.228, 100, 177, 74
2023/06/17 12:01:58.364, 97, 117, 77
2023/06/17 12:01:59.484, 99, 109, 74
2023/06/17 12:02:00.620, 103, 110, 72
2023/06/17 12:02:01.756, 99, 114, 80
2023/06/17 12:02:02.876, 99, 115, 107
2023/06/17 12:02:04.012, 99, 115, 76
2023/06/17 12:02:05.132, 102, 119, 73
2023/06/17 12:02:06.268, 100, 117, 79
2023/06/17 12:02:07.388, 97, 121, 74
2023/06/17 12:02:08.524, 101, 115, 78
2023/06/17 12:02:09.660, 102, 111, 70
2023/06/17 12:02:10.780, 99, 108, 75
2023/06/17 12:02:11.916, 99, 109, 73
2023/06/17 12:02:13.035, 100, 108, 73
2023/06/17 12:02:14.172, 102, 107, 75
2023/06/17 12:02:15.307, 101, 112, 69
2023/06/17 12:02:16.427, 99, 113, 72
2023/06/17 12:02:17.563, 101, 109, 74
2023/06/17 12:02:18.683, 101, 111, 75
2023/06/17 12:02:19.819, 96, 106, 72
2023/06/17 12:02:20.955, 101, 107, 74
2023/06/17 12:02:22.075, 96, 109, 73
2023/06/17 12:02:23.211, 96, 110, 73
2023/06/17 12:02:24.331, 100, 113, 79
2023/06/17 12:02:25.467, 100, 105, 70
2023/06/17 12:02:26.587, 95, 116, 69
2023/06/17 12:02:27.723, 95, 113, 71
2023/06/17 12:02:28.858, 96, 106, 75
2023/06/17 12:02:29.978, 99, 105, 75
2023/06/17 12:02:31.114, 99, 105, 75
2023/06/17 12:02:32.234, 100, 112, 71
2023/06/17 12:02:33.370, 98, 111, 71
2023/06/17 12:02:34.490, 97, 106, 68
2023/06/17 12:02:35.626, 95, 107, 70
2023/06/17 12:02:36.746, 94, 113, 71
2023/06/17 12:02:37.882, 97, 115, 70
2023/06/17 12:02:39.002, 97, 104, 75
2023/06/17 12:02:40.138, 97, 107, 74
2023/06/17 12:02:41.273, 97, 106, 75
2023/06/17 12:02:42.394, 95, 105, 72
2023/06/17 12:02:43.530, 94, 108, 72
2023/06/17 12:02:44.650, 95, 112, 70
2023/06/17 12:02:45.785, 95, 109, 68
2023/06/17 12:02:46.905, 98, 108, 76
2023/06/17 12:02:48.041, 97, 108, 77
2023/06/17 12:02:49.177, 96, 104, 77
2023/06/17 12:02:50.296, 95, 104, 71
2023/06/17 12:02:51.433, 96, 100, 75
2023/06/17 12:02:52.553, 96, 106, 67
2023/06/17 12:02:53.689, 96, 101, 70
2023/06/17 12:02:54.809, 95, 101, 69
2023/06/17 12:02:55.945, 97, 102, 71
2023/06/17 12:02:57.065, 97, 102, 69
2023/06/17 12:02:58.201, 94, 103, 70
2023/06/17 12:02:59.337, 97, 106, 69
2023/06/17 12:03:00.456, 95, 106, 74
2023/06/17 12:03:01.592, 94, 110, 71
2023/06/17 12:03:02.713, 95, 106, 70
2023/06/17 12:03:03.848, 93, 110, 72
2023/06/17 12:03:04.968, 97, 105, 71
2023/06/17 12:03:06.104, 92, 104, 72
2023/06/17 12:03:07.224, 95, 108, 72
2023/06/17 12:03:08.360, 92, 106, 67
2023/06/17 12:03:09.496, 93, 104, 69
2023/06/17 12:03:10.616, 96, 101, 70
2023/06/17 12:03:11.752, 94, 100, 72
2023/06/17 12:03:12.872, 96, 101, 71
2023/06/17 12:03:14.007, 94, 100, 68
2023/06/17 12:03:15.128, 95, 100, 69
2023/06/17 12:03:16.264, 93, 108, 71
2023/06/17 12:03:17.384, 98, 97, 69
2023/06/17 12:03:18.519, 94, 100, 67
2023/06/17 12:03:19.640, 95, 103, 68
2023/06/17 12:03:20.775, 91, 99, 70
2023/06/17 12:03:21.911, 97, 100, 67
2023/06/17 12:03:23.030, 96, 104, 69
2023/06/17 12:03:24.167, 94, 98, 68
2023/06/17 12:03:25.286, 95, 98, 69
2023/06/17 12:03:26.423, 92, 98, 68
2023/06/17 12:03:27.543, 93, 95, 68
2023/06/17 12:03:28.679, 93, 98, 70
2023/06/17 12:03:29.799, 94, 100, 70
2023/06/17 12:03:30.935, 94, 103, 69
2023/06/17 12:03:32.055, 95, 99, 70
2023/06/17 12:03:33.191, 91, 97, 69
2023/06/17 12:03:34.311, 93, 98, 71
2023/06/17 12:03:35.447, 92, 96, 66
2023/06/17 12:03:36.566, 91, 97, 66
2023/06/17 12:03:37.702, 92, 101, 72
2023/06/17 12:03:38.822, 94, 99, 66
2023/06/17 12:03:39.958, 100, 98, 69
2023/06/17 12:03:41.078, 91, 100, 64
2023/06/17 12:03:42.214, 92, 98, 66
2023/06/17 12:03:43.334, 93, 99, 70
2023/06/17 12:03:44.470, 89, 105, 69
2023/06/17 12:03:45.590, 93, 105, 68
2023/06/17 12:03:46.726, 94, 108, 68
2023/06/17 12:03:47.846, 97, 102, 67
2023/06/17 12:03:48.982, 93, 102, 68
2023/06/17 12:03:50.118, 92, 97, 67
2023/06/17 12:03:51.238, 92, 99, 72
2023/06/17 12:03:52.374, 94, 109, 71
2023/06/17 12:03:53.493, 93, 106, 66
2023/06/17 12:03:54.629, 94, 95, 68
2023/06/17 12:03:55.749, 93, 98, 69
2023/06/17 12:03:56.885, 93, 102, 68
2023/06/17 12:03:58.005, 92, 104, 70
2023/06/17 12:03:59.141, 89, 109, 71
2023/06/17 12:04:00.261, 91, 109, 69
2023/06/17 12:04:01.397, 89, 103, 65
2023/06/17 12:04:02.533, 92, 127, 70
2023/06/17 12:04:03.653, 91, 107, 70
2023/06/17 12:04:04.789, 92, 101, 70
2023/06/17 12:04:05.909, 97, 101, 70
2023/06/17 12:04:07.045, 95, 104, 69
2023/06/17 12:04:08.164, 93, 97, 67
2023/06/17 12:04:09.301, 93, 95, 69
2023/06/17 12:04:10.420, 95, 95, 68
2023/06/17 12:04:11.556, 91, 98, 68
2023/06/17 12:04:12.675, 91, 102, 68
2023/06/17 12:04:13.812, 91, 102, 70
2023/06/17 12:04:14.932, 90, 107, 67
2023/06/17 12:04:16.068, 91, 100, 67
2023/06/17 12:04:17.204, 90, 105, 71
2023/06/17 12:04:18.324, 90, 99, 66
2023/06/17 12:04:19.460, 92, 99, 65
2023/06/17 12:04:20.580, 96, 97, 70
2023/06/17 12:04:21.716, 93, 103, 68
2023/06/17 12:04:22.836, 89, 112, 66
2023/06/17 12:04:23.972, 94, 113, 70
2023/06/17 12:04:25.091, 91, 100, 66
2023/06/17 12:04:26.227, 90, 95, 69
2023/06/17 12:04:27.347, 92, 105, 68
2023/06/17 12:04:28.483, 94, 109, 71
2023/06/17 12:04:29.603, 91, 101, 71
2023/06/17 12:04:30.739, 91, 104, 69
2023/06/17 12:04:31.859, 89, 102, 67
2023/06/17 12:04:32.995, 90, 100, 72
2023/06/17 12:04:34.115, 90, 99, 69
2023/06/17 12:04:35.251, 90, 106, 66
2023/06/17 12:04:36.387, 93, 102, 67
2023/06/17 12:04:37.507, 94, 97, 69
2023/06/17 12:04:38.643, 92, 97, 66
2023/06/17 12:04:39.763, 92, 98, 67
2023/06/17 12:04:40.899, 94, 96, 65
2023/06/17 12:04:42.018, 93, 96, 65
2023/06/17 12:04:43.154, 92, 97, 69
2023/06/17 12:04:44.274, 93, 98, 67
2023/06/17 12:04:45.410, 95, 100, 75
2023/06/17 12:04:46.530, 92, 99, 77
2023/06/17 12:04:47.666, 91, 98, 67
2023/06/17 12:04:48.786, 94, 104, 65
2023/06/17 12:04:49.922, 92, 106, 70
2023/06/17 12:04:51.042, 91, 99, 69
2023/06/17 12:04:52.178, 92, 99, 68
2023/06/17 12:04:53.298, 91, 96, 68
2023/06/17 12:04:54.434, 92, 97, 69
2023/06/17 12:04:55.554, 92, 99, 72
2023/06/17 12:04:56.690, 91, 99, 68
2023/06/17 12:04:57.810, 88, 99, 70
2023/06/17 12:04:58.945, 90, 100, 70
2023/06/17 12:05:00.065, 93, 102, 66
2023/06/17 12:05:01.201, 93, 99, 65
2023/06/17 12:05:02.337, 91, 103, 64
2023/06/17 12:05:03.457, 91, 107, 67
2023/06/17 12:05:04.593, 91, 96, 68
2023/06/17 12:05:05.713, 92, 97, 65
2023/06/17 12:05:06.849, 90, 94, 66
2023/06/17 12:05:07.969, 90, 97, 64
2023/06/17 12:05:09.105, 91, 95, 69
2023/06/17 12:05:10.225, 89, 94, 70
2023/06/17 12:05:11.361, 89, 97, 67
2023/06/17 12:05:12.481, 89, 96, 66
2023/06/17 12:05:13.617, 91, 94, 66
2023/06/17 12:05:14.736, 90, 95, 67
2023/06/17 12:05:15.872, 93, 96, 68
2023/06/17 12:05:16.992, 90, 95, 66
2023/06/17 12:05:18.128, 89, 97, 65
2023/06/17 12:05:19.248, 94, 97, 71
2023/06/17 12:05:20.384, 92, 95, 66
2023/06/17 12:05:21.504, 90, 97, 66
2023/06/17 12:05:22.640, 95, 95, 67
2023/06/17 12:05:23.760, 91, 96, 67
2023/06/17 12:05:24.896, 92, 96, 64
2023/06/17 12:05:26.016, 91, 93, 66
2023/06/17 12:05:27.152, 90, 96, 66
2023/06/17 12:05:28.271, 91, 96, 64
2023/06/17 12:05:29.408, 92, 94, 68
2023/06/17 12:05:30.527, 87, 94, 73
2023/06/17 12:05:31.663, 92, 101, 67
2023/06/17 12:05:32.783, 89, 96, 66
2023/06/17 12:05:33.919, 90, 93, 63
2023/06/17 12:05:35.039, 93, 92, 69
2023/06/17 12:05:36.175, 91, 93, 67
2023/06/17 12:05:37.295, 90, 97, 66
2023/06/17 12:05:38.431, 89, 99, 67
2023/06/17 12:05:39.551, 91, 100, 69
2023/06/17 12:05:40.687, 90, 95, 67
2023/06/17 12:05:41.807, 90, 97, 68
2023/06/17 12:05:42.943, 92, 95, 67
2023/06/17 12:05:44.063, 89, 92, 61
2023/06/17 12:05:45.199, 91, 97, 65
2023/06/17 12:05:46.318, 93, 91, 63
2023/06/17 12:05:47.454, 93, 95, 65
2023/06/17 12:05:48.574, 89, 93, 65
2023/06/17 12:05:49.710, 90, 93, 64
2023/06/17 12:05:50.830, 90, 94, 68
2023/06/17 12:05:51.966, 89, 94, 68
2023/06/17 12:05:53.086, 91, 92, 68
2023/06/17 12:05:54.222, 90, 94, 67
2023/06/17 12:05:55.342, 93, 93, 67
2023/06/17 12:05:56.478, 90, 95, 66
2023/06/17 12:05:57.598, 91, 94, 65
2023/06/17 12:05:58.734, 91, 98, 63
2023/06/17 12:05:59.854, 90, 94, 66
2023/06/17 12:06:00.990, 91, 96, 68
2023/06/17 12:06:02.110, 90, 94, 71
2023/06/17 12:06:03.246, 91, 94, 67
2023/06/17 12:06:04.365, 90, 94, 67
2023/06/17 12:06:05.501, 91, 96, 65
2023/06/17 12:06:06.621, 88, 95, 65
2023/06/17 12:06:07.757, 90, 93, 67
2023/06/17 12:06:08.877, 89, 93, 65
2023/06/17 12:06:10.013, 89, 94, 66
2023/06/17 12:06:11.133, 93, 100, 65
2023/06/17 12:06:12.269, 91, 92, 63
2023/06/17 12:06:13.389, 95, 94, 67
2023/06/17 12:06:14.525, 93, 93, 63
2023/06/17 12:06:15.645, 91, 94, 68
2023/06/17 12:06:16.781, 93, 93, 69
2023/06/17 12:06:17.901, 89, 95, 65
2023/06/17 12:06:19.037, 94, 98, 66
2023/06/17 12:06:20.156, 91, 92, 67
2023/06/17 12:06:21.292, 90, 92, 67
2023/06/17 12:06:22.412, 88, 93, 68
2023/06/17 12:06:23.548, 90, 93, 70
2023/06/17 12:06:24.669, 90, 95, 70
2023/06/17 12:06:25.804, 91, 95, 71
2023/06/17 12:06:26.924, 89, 94, 75
2023/06/17 12:06:28.060, 93, 92, 67
2023/06/17 12:06:29.180, 92, 93, 68
2023/06/17 12:06:30.316, 91, 93, 66
2023/06/17 12:06:31.436, 91, 96, 66
2023/06/17 12:06:32.572, 91, 96, 71
2023/06/17 12:06:33.692, 90, 99, 65
2023/06/17 12:06:34.828, 92, 93, 70
2023/06/17 12:06:35.948, 89, 97, 66
2023/06/17 12:06:37.083, 94, 99, 68
2023/06/17 12:06:38.203, 90, 98, 65
2023/06/17 12:06:39.339, 88, 103, 66
2023/06/17 12:06:40.460, 89, 96, 66
2023/06/17 12:06:41.595, 90, 97, 67
2023/06/17 12:06:42.715, 87, 97, 68
2023/06/17 12:06:43.851, 93, 96, 66
2023/06/17 12:06:44.971, 92, 99, 67
2023/06/17 12:06:46.107, 94, 94, 66
2023/06/17 12:06:47.227, 90, 96, 65
2023/06/17 12:06:48.363, 91, 94, 69
2023/06/17 12:06:49.482, 91, 98, 68
2023/06/17 12:06:50.619, 92, 98, 69
2023/06/17 12:06:51.739, 90, 100, 69
2023/06/17 12:06:52.875, 92, 90, 66
2023/06/17 12:06:54.011, 93, 94, 68
2023/06/17 12:06:55.130, 92, 92, 63
2023/06/17 12:06:56.265, 91, 96, 66
2023/06/17 12:06:57.386, 92, 93, 68
2023/06/17 12:06:58.521, 90, 94, 68
2023/06/17 12:06:59.642, 92, 93, 67
2023/06/17 12:07:00.778, 93, 95, 66
2023/06/17 12:07:01.898, 91, 97, 66
2023/06/17 12:07:03.034, 91, 92, 62
2023/06/17 12:07:04.154, 89, 97, 67
2023/06/17 12:07:05.290, 88, 95, 68
2023/06/17 12:07:06.410, 90, 98, 64
2023/06/17 12:07:07.546, 90, 98, 69
2023/06/17 12:07:08.665, 91, 95, 64
2023/06/17 12:07:09.802, 89, 96, 68
2023/06/17 12:07:10.921, 87, 93, 68
2023/06/17 12:07:12.057, 92, 92, 66
2023/06/17 12:07:13.177, 87, 92, 68
2023/06/17 12:07:14.313, 91, 97, 64
2023/06/17 12:07:15.433, 92, 94, 63
2023/06/17 12:07:16.569, 93, 96, 65
2023/06/17 12:07:17.689, 89, 94, 69
2023/06/17 12:07:18.824, 90, 91, 64
2023/06/17 12:07:19.945, 88, 92, 63
2023/06/17 12:07:21.081, 90, 94, 70
2023/06/17 12:07:22.200, 89, 93, 72
2023/06/17 12:07:23.337, 94, 91, 66
2023/06/17 12:07:24.457, 94, 94, 64
2023/06/17 12:07:25.592, 91, 98, 69
2023/06/17 12:07:26.712, 92, 96, 68
2023/06/17 12:07:27.848, 91, 93, 64
2023/06/17 12:07:28.968, 92, 94, 66
2023/06/17 12:07:30.104, 89, 96, 66
2023/06/17 12:07:31.224, 90, 91, 64
2023/06/17 12:07:32.360, 87, 95, 66
2023/06/17 12:07:33.480, 89, 96, 67
2023/06/17 12:07:34.616, 91, 96, 69
2023/06/17 12:07:35.736, 91, 93, 66
2023/06/17 12:07:36.872, 92, 97, 64
2023/06/17 12:07:37.992, 90, 98, 68
2023/06/17 12:07:39.128, 91, 101, 67
2023/06/17 12:07:40.248, 91, 96, 66
2023/06/17 12:07:41.384, 87, 97, 65
2023/06/17 12:07:42.503, 90, 96, 63
2023/06/17 12:07:43.639, 92, 93, 67
2023/06/17 12:07:44.759, 90, 103, 65
2023/06/17 12:07:45.895, 91, 102, 67
2023/06/17 12:07:47.014, 88, 95, 68
2023/06/17 12:07:48.151, 90, 96, 67
2023/06/17 12:07:49.271, 89, 93, 67
2023/06/17 12:07:50.407, 90, 99, 65
2023/06/17 12:07:51.526, 91, 93, 65
2023/06/17 12:07:52.663, 91, 96, 68
2023/06/17 12:07:53.782, 90, 96, 64
2023/06/17 12:07:54.919, 91, 92, 69
2023/06/17 12:07:56.039, 92, 93, 69
2023/06/17 12:07:57.174, 88, 96, 62
2023/06/17 12:07:58.295, 90, 96, 68
2023/06/17 12:07:59.430, 91, 95, 69
2023/06/17 12:08:00.550, 92, 93, 66
2023/06/17 12:08:01.686, 92, 94, 66
2023/06/17 12:08:02.806, 91, 94, 64
2023/06/17 12:08:03.942, 89, 96, 67
2023/06/17 12:08:05.062, 90, 97, 64
2023/06/17 12:08:06.198, 89, 95, 65
2023/06/17 12:08:07.318, 90, 99, 67
2023/06/17 12:08:08.454, 89, 99, 67
2023/06/17 12:08:09.574, 90, 95, 67
2023/06/17 12:08:10.710, 89, 97, 66
2023/06/17 12:08:11.830, 92, 94, 68
2023/06/17 12:08:12.965, 88, 96, 68
2023/06/17 12:08:14.085, 87, 98, 64
2023/06/17 12:08:15.221, 88, 95, 66
2023/06/17 12:08:16.341, 89, 98, 70
2023/06/17 12:08:17.477, 93, 101, 64
2023/06/17 12:08:18.597, 89, 95, 67
2023/06/17 12:08:19.733, 90, 93, 68
2023/06/17 12:08:20.853, 89, 93, 67
2023/06/17 12:08:21.989, 91, 93, 65
2023/06/17 12:08:23.109, 94, 94, 66
2023/06/17 12:08:24.245, 90, 95, 67
2023/06/17 12:08:25.381, 91, 92, 66
2023/06/17 12:08:26.501, 89, 97, 65
2023/06/17 12:08:27.621, 88, 95, 67
2023/06/17 12:08:28.757, 94, 95, 67
2023/06/17 12:08:29.877, 93, 94, 71
2023/06/17 12:08:31.012, 89, 92, 65
2023/06/17 12:08:32.132, 89, 99, 63
2023/06/17 12:08:33.268, 91, 94, 67
2023/06/17 12:08:34.388, 92, 101, 65
2023/06/17 12:08:35.524, 91, 103, 69
2023/06/17 12:08:36.644, 91, 98, 66
2023/06/17 12:08:37.780, 91, 93, 69
2023/06/17 12:08:38.916, 88, 95, 68
2023/06/17 12:08:40.036, 88, 97, 69
2023/06/17 12:08:41.172, 89, 99, 66
2023/06/17 12:08:42.292, 92, 104, 71
2023/06/17 12:08:43.428, 85, 102, 67
2023/06/17 12:08:44.548, 91, 99, 67
2023/06/17 12:08:45.684, 87, 97, 69
2023/06/17 12:08:46.804, 90, 106, 67
2023/06/17 12:08:47.939, 91, 102, 70
2023/06/17 12:08:49.059, 87, 95, 63
2023/06/17 12:08:50.195, 90, 93, 62
2023/06/17 12:08:51.315, 91, 95, 66
2023/06/17 12:08:52.451, 93, 95, 67
2023/06/17 12:08:53.571, 91, 94, 66
2023/06/17 12:08:54.707, 90, 97, 67
2023/06/17 12:08:55.827, 89, 96, 69
2023/06/17 12:08:56.963, 94, 100, 66
2023/06/17 12:08:58.083, 89, 100, 67
2023/06/17 12:08:59.219, 90, 96, 69
2023/06/17 12:09:00.338, 92, 92, 65
2023/06/17 12:09:01.475, 89, 94, 67
2023/06/17 12:09:02.594, 88, 95, 66
2023/06/17 12:09:03.731, 91, 97, 65
2023/06/17 12:09:04.850, 89, 94, 68
2023/06/17 12:09:05.986, 90, 97, 64
2023/06/17 12:09:07.106, 89, 93, 67
2023/06/17 12:09:08.242, 89, 94, 66
2023/06/17 12:09:09.362, 93, 93, 64
2023/06/17 12:09:10.498, 91, 95, 67
2023/06/17 12:09:11.618, 91, 94, 68
2023/06/17 12:09:12.754, 88, 93, 67
2023/06/17 12:09:13.874, 90, 96, 64
2023/06/17 12:09:15.010, 89, 93, 65
2023/06/17 12:09:16.130, 87, 96, 66
2023/06/17 12:09:17.266, 89, 95, 68
2023/06/17 12:09:18.386, 87, 93, 65
2023/06/17 12:09:19.522, 90, 98, 66
2023/06/17 12:09:20.658, 91, 97, 73
2023/06/17 12:09:21.777, 89, 94, 72
2023/06/17 12:09:22.913, 90, 97, 76
2023/06/17 12:09:24.033, 91, 95, 70
2023/06/17 12:09:25.169, 90, 94, 71
2023/06/17 12:09:26.289, 90, 90, 68
2023/06/17 12:09:27.409, 89, 92, 66
2023/06/17 12:09:28.545, 91, 95, 68
2023/06/17 12:09:29.665, 90, 96, 65
2023/06/17 12:09:30.801, 88, 92, 67
2023/06/17 12:09:31.921, 91, 95, 66
2023/06/17 12:09:33.056, 91, 94, 67
2023/06/17 12:09:34.177, 89, 94, 64
2023/06/17 12:09:35.312, 91, 99, 66
2023/06/17 12:09:36.432, 90, 105, 69
2023/06/17 12:09:37.568, 91, 96, 63
2023/06/17 12:09:38.688, 91, 99, 69
2023/06/17 12:09:39.824, 90, 94, 69
2023/06/17 12:09:40.944, 91, 94, 67
2023/06/17 12:09:42.080, 89, 96, 70
2023/06/17 12:09:43.216, 91, 94, 67
2023/06/17 12:09:44.336, 92, 98, 68
2023/06/17 12:09:45.472, 90, 97, 67
2023/06/17 12:09:46.592, 91, 98, 65
2023/06/17 12:09:47.728, 93, 95, 67
2023/06/17 12:09:48.848, 89, 95, 66
2023/06/17 12:09:49.984, 89, 93, 68
2023/06/17 12:09:51.104, 90, 93, 66
2023/06/17 12:09:52.240, 90, 95, 63
2023/06/17 12:09:53.359, 91, 95, 66
2023/06/17 12:09:54.495, 91, 94, 69
2023/06/17 12:09:55.615, 89, 93, 66
2023/06/17 12:09:56.751, 90, 94, 65
2023/06/17 12:09:57.871, 89, 98, 65
2023/06/17 12:09:59.006, 89, 98, 71
2023/06/17 12:10:00.127, 90, 104, 66
2023/06/17 12:10:01.263, 89, 103, 64
2023/06/17 12:10:02.383, 88, 93, 66
2023/06/17 12:10:03.519, 91, 93, 65
2023/06/17 12:10:04.638, 88, 93, 65
2023/06/17 12:10:05.775, 90, 95, 68
2023/06/17 12:10:06.895, 90, 92, 65
2023/06/17 12:10:08.031, 90, 95, 67
2023/06/17 12:10:09.150, 89, 107, 66
2023/06/17 12:10:10.286, 90, 100, 69
2023/06/17 12:10:11.406, 90, 99, 65
2023/06/17 12:10:12.542, 89, 94, 64
2023/06/17 12:10:13.662, 94, 95, 66
2023/06/17 12:10:14.797, 93, 94, 67
2023/06/17 12:10:15.918, 92, 99, 68
2023/06/17 12:10:17.054, 93, 97, 65
2023/06/17 12:10:18.174, 91, 100, 67
2023/06/17 12:10:19.310, 93, 102, 64
2023/06/17 12:10:20.430, 92, 99, 69
2023/06/17 12:10:21.566, 96, 103, 69
2023/06/17 12:10:22.702, 96, 101, 72
2023/06/17 12:10:23.822, 95, 107, 68
2023/06/17 12:10:24.958, 95, 107, 71
2023/06/17 12:10:26.077, 95, 99, 68
2023/06/17 12:10:27.213, 94, 107, 71
2023/06/17 12:10:28.333, 94, 104, 68
2023/06/17 12:10:29.469, 100, 113, 70
2023/06/17 12:10:30.589, 99, 104, 71
2023/06/17 12:10:31.725, 96, 108, 76
2023/06/17 12:10:32.861, 100, 111, 71
2023/06/17 12:10:33.981, 97, 107, 73
2023/06/17 12:10:35.117, 94, 116, 72
2023/06/17 12:10:36.237, 101, 109, 72
2023/06/17 12:10:37.373, 96, 110, 72
2023/06/17 12:10:38.493, 99, 107, 74
2023/06/17 12:10:39.629, 98, 115, 75
2023/06/17 12:10:40.749, 98, 109, 78
2023/06/17 12:10:41.884, 100, 109, 75
2023/06/17 12:10:43.020, 103, 111, 74
2023/06/17 12:10:44.140, 101, 114, 76
2023/06/17 12:10:45.276, 100, 115, 76
2023/06/17 12:10:46.396, 97, 108, 78
2023/06/17 12:10:47.532, 105, 122, 79
2023/06/17 12:10:48.668, 107, 125, 73
2023/06/17 12:10:49.788, 97, 108, 78
2023/06/17 12:10:50.924, 101, 115, 76
2023/06/17 12:10:52.044, 102, 115, 88
2023/06/17 12:10:53.180, 102, 112, 76
2023/06/17 12:10:54.316, 102, 113, 81
2023/06/17 12:10:55.436, 102, 114, 79
2023/06/17 12:10:56.572, 102, 122, 81
2023/06/17 12:10:57.692, 103, 113, 80
2023/06/17 12:10:58.828, 102, 114, 80
2023/06/17 12:10:59.963, 105, 113, 83
2023/06/17 12:11:01.083, 104, 119, 79
2023/06/17 12:11:02.219, 106, 120, 84
2023/06/17 12:11:03.339, 100, 123, 77
2023/06/17 12:11:04.475, 106, 138, 82
2023/06/17 12:11:05.611, 102, 121, 84
2023/06/17 12:11:06.731, 104, 117, 78
2023/06/17 12:11:07.867, 104, 124, 81
2023/06/17 12:11:08.987, 103, 121, 81
2023/06/17 12:11:10.123, 103, 114, 82
2023/06/17 12:11:11.259, 110, 122, 84
2023/06/17 12:11:12.378, 107, 121, 78
2023/06/17 12:11:13.515, 101, 121, 89
2023/06/17 12:11:14.651, 106, 124, 84
2023/06/17 12:11:15.770, 105, 120, 82
2023/06/17 12:11:16.906, 106, 122, 81
2023/06/17 12:11:18.026, 105, 126, 84
2023/06/17 12:11:19.162, 103, 133, 81
2023/06/17 12:11:20.298, 110, 126, 79
2023/06/17 12:11:21.418, 107, 126, 77
2023/06/17 12:11:22.554, 105, 123, 85
2023/06/17 12:11:23.674, 110, 125, 80
2023/06/17 12:11:24.810, 107, 126, 87
2023/06/17 12:11:25.946, 104, 127, 85
2023/06/17 12:11:27.066, 110, 123, 82
2023/06/17 12:11:28.202, 112, 126, 86
2023/06/17 12:11:29.321, 109, 124, 86
2023/06/17 12:11:30.458, 108, 127, 83
2023/06/17 12:11:31.577, 107, 121, 80
2023/06/17 12:11:32.713, 109, 122, 81
2023/06/17 12:11:33.849, 108, 126, 81
2023/06/17 12:11:34.969, 106, 142, 88
2023/06/17 12:11:36.105, 111, 131, 80
2023/06/17 12:11:37.225, 117, 123, 80
2023/06/17 12:11:38.361, 110, 130, 85
2023/06/17 12:11:39.496, 113, 130, 86
2023/06/17 12:11:40.617, 108, 130, 79
2023/06/17 12:11:41.752, 110, 134, 91
2023/06/17 12:11:42.872, 107, 128, 90
2023/06/17 12:11:44.009, 121, 127, 87
2023/06/17 12:11:45.145, 112, 145, 86
2023/06/17 12:11:46.264, 108, 128, 83
2023/06/17 12:11:47.400, 110, 128, 83
2023/06/17 12:11:48.536, 109, 129, 82
2023/06/17 12:11:49.656, 111, 128, 83
2023/06/17 12:11:50.792, 157, 125, 81
2023/06/17 12:11:51.912, 110, 133, 85
2023/06/17 12:11:53.048, 107, 133, 88
2023/06/17 12:11:54.184, 110, 138, 91
2023/06/17 12:11:55.304, 110, 131, 90
2023/06/17 12:11:56.440, 109, 131, 90
2023/06/17 12:11:57.560, 109, 127, 81